Regional Weather Roundup
Issued by NWS Newport/Morehead, NC

Current Version | Previous Version | Graphics & Text | Print | Product List | Glossary Off
Versions: 1 2 3 4 5 6 7 8 9 10 11 12 13 14 15 16 17 18 19 20 21 22 23 24 25 26 27 28 29 30 31 32 33 34 35 36 37 38 39 40 41 42 43 44 45 46 47 48 49 50

443
ASUS42 KMHX 141213
RWRMHX
WEATHER ROUNDUP FOR EASTERN NORTH CAROLINA
NATIONAL WEATHER SERVICE NEWPORT/MOREHEAD CITY NC
700 AM EST THU DEC 14 2017

NOTE: "FAIR" INDICATES FEW OR NO CLOUDS BELOW 12,000 FEET
WITH NO SIGNIFICANT WEATHER AND/OR OBSTRUCTIONS TO VISIBILITY

NCZ015>017-031-032-045>047-102-103-141300-
NORTH COAST

CITY           SKY/WX    TMP DP  RH WIND       PRES   REMARKS
EDENTON        CLEAR     42  27  56 SW14G20   29.75R
ELIZABETH CITY PTCLDY    39  26  59 SW13      29.73R
KITTY HAWK     SUNNY     41  25  52 SW9G18    29.72R
MANTEO         CLEAR     41  27  57 W14       29.74R

$$

NCZ045>047-081-094-103-104-141300-
CENTRAL COAST

CITY           SKY/WX    TMP DP  RH WIND       PRES   REMARKS
FRISCO         CLEAR     47  26  44 W20G25    29.77R

$$

NCZ095-097-098-100-101-141300-
SOUTHERN COAST

CITY           SKY/WX    TMP DP  RH WIND       PRES   REMARKS
BEAUFORT       CLEAR     46  29  51 W17       29.80R
CEDAR ISLAND   NOT AVBL
JACKSONVILLE   CLEAR     40  25  55 SW10      29.81R
PINEY ISLAND     N/A    N/A N/A N/A SW15      29.79R
WILMINGTON     CLEAR     41  26  55 SW10      29.84R


$$

NCZ011>013-027>030-043-044-078>080-089-090>093-098-141300-
COASTAL PLAIN

CITY           SKY/WX    TMP DP  RH WIND       PRES   REMARKS
AHOSKIE        CLEAR     33  22  64 CALM      29.74R
CLINTON        CLEAR     35  25  66 CALM      29.81R
ELIZABETHTOWN  NOT AVBL
GOLDSBORO      CLEAR     36  23  59 SW9       29.77R
GREENVILLE     CLEAR     37  23  56 SW8       29.79R
HAVELOCK       CLEAR     41  25  53 SW12      29.81R
KENANSVILLE    CLEAR     36  25  64 SW7       29.80R
KINSTON        CLEAR     39  23  52 SW10      29.80
NEW BERN       CLEAR     40  24  53 SW12      29.81R
RICHLANDS      CLEAR     37  25  61 SW8       29.82R
ROCKY MOUNT    CLEAR     35  24  64 SW9       29.76R
WASHINGTON     CLEAR     37  24  59 SW7       29.77R
WHITEVILLE     CLEAR     40  25  54 SW6       29.83R

$$

AMZ130-135-150-152-154-156-158-170-250-252-270-ANZ085-086-088-633-658-670-141300-
MARINE OBSERVATIONS

STATION/POSITION TIME  TEMP    WIND        PRES    WAVE   SWELL
                       AIR SEA DIR/SP/G            HT/PER HT/PER
                 (UTC) (F)     (DEG/KT/KT) (MB)    (FT/S) (FT/S)
CHESAPEAKE LIGHT NOT AVBL
64 E VA BEACH    1150   50 60  250/ 27/ 33 1004.3    9/ 6
DUCK             1148   42 52  250/ 17/ 20 1006.1
2 E DUCK         1200      55                N/A     2/ 2
OREGON INLET     1142   43 42  220/ 20/ 23 1006.6
13E OREGON INLT  1148      58                N/A     5/ 4   2/13
HATTERAS CG      1148   47 50  250/ 15/ 25 1007.8
DIAMOND BUOY     1200   57 74  250/ 25/ 33 1008.0
CAPE LOOKOUT     1200          250/ 22/ 26 1009.4
BEAUFORT LAB     1148   48 52  260/ 10/ 14 1009.1
30 SE NEW RVR IN 1108   55 63  240/ 23/ 29 1008.8
30 SE NEW RVR IN 1200      63                N/A    10/ 7
27 SE WRIGHTSVLE 1108   55 65  250/ 27/ 39 1009.8
5 SE WRIGHTSVLE  1108   51 56  260/ 17/ 25 1009.0
225 S CAPE HAT   1150   67 74  240/ 23/ 27 1012.2    8/ 7
41 SE CHARLESTON 1150      73  270/ 23/ 29 1012.3    8/ 7   2/11

$$




USA.gov is the U.S. government's official web portal to all federal, state and local government web resources and services.